Location: Unspecified
(33.9239°N, 118.0544°W)
Time: 03:16:10
(UTC-07:00)

Resurs 1-4 Rocket - Visible Passes

Search period start: 29 May 2015 00:00
Search period end: 08 June 2015 00:00
Orbit: 800 x 814 km, 98.4° (Epoch: 28 May)

Date Brightness Start Highest point End Pass type
(mag) Time Alt. Az. Time Alt. Az. Time Alt. Az.
29 May 2.4 04:11:22 10° NNE 04:16:41 69° E 04:21:49 11° S visible
30 May 3.3 03:47:12 10° NNE 03:52:08 39° E 03:57:03 10° SSE visible
31 May 4.1 03:23:27 10° NE 03:27:28 22° E 03:31:38 10° SE visible
31 May 2.8 05:02:34 10° N 05:07:28 37° WNW 05:12:17 10° SW visible
01 Jun 4.7 03:00:44 10° ENE 03:02:40 12° E 03:04:58 10° ESE visible
01 Jun 2.2 04:37:47 10° N 04:43:05 65° WNW 04:48:20 10° SSW visible
02 Jun 2.3 04:13:18 10° NNE 04:18:37 73° ESE 04:23:49 11° S visible
03 Jun 3.2 03:49:05 10° NNE 03:54:05 41° E 03:59:02 10° SSE visible
04 Jun 4.1 03:25:16 10° NE 03:29:25 24° E 03:33:41 10° SSE visible
04 Jun 2.9 05:04:32 10° N 05:09:23 35° WNW 05:14:08 10° SW visible
05 Jun 4.6 03:02:22 10° ENE 03:04:38 13° E 03:07:14 10° ESE visible
05 Jun 2.2 04:39:44 10° N 04:45:00 62° WNW 04:50:14 10° SSW visible
06 Jun 2.2 04:15:13 10° NNE 04:20:33 77° E 04:25:47 10° S visible
07 Jun 3.1 03:50:58 10° NNE 03:56:01 43° E 04:01:00 10° S visible
